Weather observations for the past three days for
Minneapolis - Flying Cloud Airport
Imperial (Metric)
Date Time (cdt) Wind (mph) Vis. (mi.) Weather Sky Cond. Temperature (ºF) Relative Humidity Wind Chill (°F) Heat Index (°F) Pressure Precipitation (in)
Air Dwpt 6 hour altimeter (in) sea level (mb) 1 hr 3 hr 6 hr
Max. Min.
26 20:53 E 6 10.00 Fair CLR 63 48 58% 29.7 1005.6
26 19:53 N 6 10.00 Fair CLR 68 46.9 47% 29.68 1005.0
26 18:53 NE 8 10.00 Fair CLR 68 48 69.1 61 49% 29.67 1004.6
26 17:53 NE 9 10.00 Fair CLR 68 51.1 55% 29.67 1004.6
26 16:53 Vrbl 5 7.00 Mostly Cloudy SCT041 BKN055 68 52 57% 29.67 1004.6
26 15:53 N 3 10.00 Overcast OVC060 66.9 53.1 61% 29.68 1004.7
26 14:53 NE 6 10.00 Overcast OVC055 64.9 53.1 66% 29.66 1004.2
26 13:53 N 5 10.00 Overcast SCT028 OVC037 62.1 54 75% 29.66 1004.1
26 12:53 NE 10 10.00 Overcast OVC031 64 53.1 64 61 68% 29.66 1004.0
26 11:53 NE 10 10.00 Overcast OVC025 64 52 65% 29.66 1004.3
26 10:53 E 9 10.00 Overcast OVC060 62.1 51.1 67% 29.67 1004.6
26 09:53 E 13 10.00 Overcast FEW048 SCT055 OVC070 61 50 67% 29.67 1004.7
26 08:53 E 7 10.00 Overcast BKN038 OVC044 63 52 68% 29.68 1004.8
26 07:53 NE 6 10.00 Mostly Cloudy BKN028 62.1 53.1 73% 29.66 1004.2
26 06:53 E 7 10.00 Overcast BKN032 OVC110 62.1 51.1 64 57.9 67% 29.65 1003.7
26 05:53 E 8 10.00 Mostly Cloudy BKN110 60.1 51.1 72% 29.65 1003.8
26 04:53 NE 8 10.00 A Few Clouds FEW120 60.1 51.1 72% 29.65 1003.8
26 03:53 NE 6 10.00 Fair CLR 59 51.1 75% 29.67 1004.5
26 02:53 NE 7 10.00 Fair CLR 60.1 50 70% 29.67 1004.3
26 01:53 E 5 10.00 Fair CLR 64 50 60% 29.69 1005.1
26 00:53 E 5 10.00 A Few Clouds FEW110 62.1 52 68 61 70% 29.73 1006.4
25 23:53 SE 6 10.00 Fair CLR 63 52 68% 29.73 1006.5
25 22:53 Calm 10.00 Fair CLR 64 52 65% 29.73 1006.4
25 21:53 Calm 10.00 Fair CLR 63 52 68% 29.74 1006.8
25 20:53 Calm 10.00 Fair CLR 66 51.1 59% 29.72 1006.4
25 19:53 S 8 10.00 Fair CLR 66.9 53.1 61% 29.72 1006.4
25 18:53 S 7 10.00 Fair CLR 66.9 53.1 75 66.9 61% 29.72 1006.4
25 17:53 SW 8 10.00 Fair CLR 68 52 57% 29.73 1006.9
25 16:53 W 18 G 38 10.00 A Few Clouds FEW070 FEW095 70 50 49% 29.75 1007.6
25 15:53 SW 16 G 28 10.00 Fair CLR 73 50 44% 29.74 1007.0
25 14:53 SW 17 G 24 10.00 Fair CLR 72 48 43% 29.74 1007.0
25 13:53 SW 20 G 35 10.00 Partly Cloudy SCT065 SCT110 73.9 48 40% 29.74 1007.2
25 12:53 SW 17 G 29 10.00 Mostly Cloudy BKN120 73 50 73 51.1 44% 29.75 1007.4
25 11:53 SW 16 G 26 10.00 Fair CLR 70 50 49% 29.76 1007.7
25 10:53 S 17 G 23 10.00 Fair CLR 69.1 48 47% 29.76 1007.7
25 09:53 S 12 G 22 10.00 Fair CLR 64.9 48 54% 29.76 1007.9
25 08:53 S 9 10.00 Fair CLR 61 46.9 60% 29.77 1008.3
25 07:53 S 9 10.00 Fair CLR 55.9 46 70% 29.77 1008.2
25 06:53 S 12 10.00 Fair CLR 51.1 45 51.1 46 80% 29.78 1008.5
25 05:53 S 10 10.00 Fair CLR 48.9 44.1 83% 45 29.76 1008.1
25 04:53 SW 8 10.00 Fair CLR 46.9 43 86% 44 29.75 1007.4
25 03:53 SW 10 10.00 Fair CLR 48 42.1 80% 44 29.75 1007.2
25 02:53 SW 6 10.00 Fair CLR 46 41 83% 44 29.75 1007.3
25 01:53 S 6 10.00 Fair CLR 48 42.1 80% 46 29.74 1007.0
25 00:53 SW 7 10.00 Fair CLR 48 41 59 48 77% 45 29.76 1007.6
24 23:53 SW 7 10.00 Fair CLR 48.9 39.9 71% 46 29.76 1007.7
24 22:53 W 7 10.00 Fair CLR 50 39 66% 48 29.76 1007.8
24 21:53 W 13 G 26 10.00 Fair CLR 51.1 37.9 61% 29.75 1007.3
24 20:53 W 14 G 25 10.00 Overcast OVC038 53.1 39.9 61% 29.71 1006.1
24 19:53 W 16 G 31 10.00 Overcast OVC035 54 41 62% 29.68 1005.1
24 18:53 W 20 G 37 10.00 Overcast OVC042 59 44.1 73.9 57.9 58% 29.63 1003.2
24 17:53 SW 20 G 33 10.00 Overcast SCT034 OVC047 60.1 46.9 62% 29.6 1002.2
24 16:53 W 20 G 35 10.00 Mostly Cloudy SCT040 BKN050 64.9 46.9 52% 29.57 1001.0
24 15:53 W 18 G 32 10.00 Mostly Cloudy SCT043 BKN050 66.9 51.1 57% 29.55 1000.3
24 14:53 SW 22 G 36 10.00 Mostly Cloudy and Breezy BKN060 73.9 53.1 48% 29.52 999.2
24 13:53 S 16 G 33 10.00 Mostly Cloudy SCT037 BKN046 71.1 55.9 59% 29.52 999.1
24 12:53 SW 14 G 32 10.00 Mostly Cloudy BKN034 BKN043 71.1 57 73 59 61% 29.52 999.1 0.21
24 11:53 SW 15 G 25 10.00 Overcast FEW023 BKN027 OVC043 69.1 57.9 68% 29.5 998.6
24 10:53 S 20 G 29 10.00 Overcast OVC014 66 60.1 81% 29.46 997.3
24 09:53 SE 18 G 26 10.00 Overcast OVC015 64 60.1 87% 29.45 996.8 0.21
24 08:53 SE 18 G 28 9.00 Overcast BKN021 BKN060 OVC090 61 57 87% 29.46 997.1 0.11
24 07:53 E 16 G 22 4.00 Light Rain FEW060 OVC085 60.1 54 80% 29.5 998.5 0.1
24 06:53 E 15 7.00 Light Rain FEW055 BKN080 OVC100 61 51.1 68 61 70% 29.51 998.8 0.08 0.08
24 05:53 SE 17 G 26 10.00 A Few Clouds FEW110 66.9 46 47% 29.58 1001.1
24 04:53 E 16 G 25 10.00 Fair CLR 66.9 46 47% 29.59 1001.5
24 03:53 E 13 G 24 10.00 Fair CLR 66.9 46.9 49% 29.62 1002.6
24 02:53 E 12 10.00 A Few Clouds FEW120 66.9 48 51% 29.67 1004.2
24 01:53 E 10 10.00 Fair CLR 66.9 50 55% 29.71 1005.7
24 00:53 E 8 10.00 Fair CLR 66.9 50 78.1 64.9 55% 29.74 1006.7
23 23:53 SE 8 10.00 Fair CLR 68 50 53% 29.76 1007.4
23 22:53 SE 8 10.00 Fair CLR 69.1 51.1 53% 29.76 1007.4
23 21:53 SE 7 10.00 Fair CLR 70 52 53% 29.76 1007.5
Date Time (cdt) Wind (mph) Vis. (mi.) Weather Sky Cond. Air Dwpt Max. Min. Relative Humidity Wind Chill (°F) Heat Index (°F) altimeter (in) sea level (mb) 1 hr 3 hr 6 hr
6 hour
Temperature (ºF) Pressure Precipitation (in)